• In Netherlands
  • List of Countries
  • For 7 days
  • Water Temperature
  • Satellite Maps
  • Weather Map
  • Weather Widgets
  • user-avatar
    Login

    Hourly Weather Jambol

    Today, 16 August, Wednesday

    Time Temperature Precipitation Wind Pressure Humidity
    00:00 +22°C° 0 mm 4 mps 750 mmHg 67%
    01:00 +21°C° 0 mm 4 mps 750 mmHg 68%
    02:00 +22°C° 0 mm 5 mps 750 mmHg 64%
    03:00 +21°C° 0 mm 5 mps 749 mmHg 66%
    04:00 +21°C° 0 mm 5 mps 749 mmHg 67%
    05:00 +21°C° 0 mm 5 mps 749 mmHg 69%
    06:00 +22°C° 0 mm 5 mps 749 mmHg 64%
    07:00 +24°C° 0 mm 6 mps 749 mmHg 58%
    08:00 +26°C° 0 mm 7 mps 749 mmHg 52%
    09:00 +28°C° 0 mm 7 mps 749 mmHg 47%
    10:00 +31°C° 0 mm 8 mps 749 mmHg 41%
    11:00 +33°C° 0 mm 8 mps 749 mmHg 36%
    12:00 +33°C° 0 mm 8 mps 749 mmHg 35%
    13:00 +33°C° 0 mm 8 mps 749 mmHg 35%
    14:00 +33°C° 0 mm 8 mps 749 mmHg 34%
    15:00 +33°C° 0 mm 7 mps 749 mmHg 34%
    16:00 +33°C° 0 mm 7 mps 749 mmHg 33%
    17:00 +33°C° 0 mm 7 mps 748 mmHg 33%
    18:00 +32°C° 0 mm 6 mps 749 mmHg 38%
    19:00 +29°C° 0 mm 5 mps 749 mmHg 42%
    20:00 +27°C° 0 mm 4 mps 749 mmHg 47%
    21:00 +26°C° 0 mm 3 mps 749 mmHg 50%
    22:00 +25°C° 0 mm 3 mps 749 mmHg 53%
    23:00 +24°C° 0 mm 2 mps 749 mmHg 56%

    Tomorrow, 17 August, Thursday

    Time Temperature Precipitation Wind Pressure Humidity
    00:00 +24°C° 0 mm 3 mps 749 mmHg 55%
    01:00 +22°C° 0 mm 3 mps 749 mmHg 54%
    02:00 +22°C° 0 mm 3 mps 749 mmHg 53%
    03:00 +22°C° 0 mm 3 mps 749 mmHg 53%
    04:00 +21°C° 0 mm 3 mps 748 mmHg 52%
    05:00 +21°C° 0 mm 3 mps 748 mmHg 52%
    06:00 +23°C° 0 mm 4 mps 748 mmHg 46%
    07:00 +26°C° 0 mm 4 mps 749 mmHg 41%
    08:00 +28°C° 0 mm 5 mps 749 mmHg 35%
    09:00 +30°C° 0 mm 5 mps 749 mmHg 31%
    10:00 +33°C° 0 mm 6 mps 749 mmHg 27%
    11:00 +35°C° 0 mm 6 mps 749 mmHg 23%
    12:00 +36°C° 0 mm 6 mps 749 mmHg 22%
    13:00 +36°C° 0 mm 6 mps 748 mmHg 21%
    14:00 +38°C° 0 mm 6 mps 748 mmHg 19%
    15:00 +36°C° 0 mm 6 mps 748 mmHg 20%
    16:00 +36°C° 0 mm 5 mps 748 mmHg 21%
    17:00 +35°C° 0 mm 5 mps 748 mmHg 22%
    18:00 +33°C° 0 mm 4 mps 748 mmHg 28%
    19:00 +30°C° 0 mm 4 mps 748 mmHg 34%
    20:00 +28°C° 0 mm 3 mps 749 mmHg 40%
    21:00 +27°C° 0 mm 2 mps 749 mmHg 44%
    22:00 +25°C° 0 mm 2 mps 749 mmHg 48%
    23:00 +24°C° 0 mm 1 mps 749 mmHg 51%

    Day after tomorrow, 18 August, Friday

    Time Temperature Precipitation Wind Pressure Humidity
    00:00 +24°C° 0 mm 2 mps 749 mmHg 50%
    01:00 +24°C° 0 mm 2 mps 749 mmHg 49%
    02:00 +23°C° 0 mm 2 mps 749 mmHg 48%
    03:00 +23°C° 0 mm 2 mps 749 mmHg 48%
    04:00 +23°C° 0 mm 2 mps 749 mmHg 47%
    05:00 +21°C° 0 mm 2 mps 749 mmHg 46%
    06:00 +25°C° 0 mm 3 mps 749 mmHg 42%
    07:00 +27°C° 0 mm 4 mps 749 mmHg 38%
    08:00 +29°C° 0 mm 5 mps 750 mmHg 33%
    09:00 +32°C° 0 mm 5 mps 750 mmHg 29%
    10:00 +34°C° 0 mm 6 mps 750 mmHg 25%
    11:00 +36°C° 0 mm 6 mps 750 mmHg 21%
    12:00 +36°C° 0 mm 6 mps 750 mmHg 20%
    13:00 +38°C° 0 mm 6 mps 749 mmHg 20%
    14:00 +38°C° 0 mm 6 mps 749 mmHg 19%
    15:00 +36°C° 0 mm 5 mps 749 mmHg 20%
    16:00 +36°C° 0 mm 5 mps 749 mmHg 21%
    17:00 +35°C° 0 mm 4 mps 749 mmHg 23%
    18:00 +33°C° 0 mm 4 mps 749 mmHg 29%
    19:00 +30°C° 0 mm 3 mps 750 mmHg 35%
    20:00 +28°C° 0 mm 3 mps 750 mmHg 41%
    21:00 +26°C° 0 mm 2 mps 750 mmHg 47%
    22:00 +25°C° 0 mm 2 mps 750 mmHg 54%
    23:00 +24°C° 0 mm 1 mps 750 mmHg 61%

    19 August, Saturday

    Time Temperature Precipitation Wind Pressure Humidity
    00:00 +24°C° 0 mm 2 mps 750 mmHg 60%
    01:00 +23°C° 0 mm 2 mps 750 mmHg 60%
    02:00 +23°C° 0 mm 2 mps 750 mmHg 60%
    03:00 +23°C° 0 mm 2 mps 750 mmHg 58%
    04:00 +23°C° 0 mm 2 mps 749 mmHg 56%
    05:00 +21°C° 0 mm 2 mps 749 mmHg 54%
    06:00 +24°C° 0 mm 2 mps 749 mmHg 47%
    07:00 +27°C° 0 mm 2 mps 750 mmHg 41%
    08:00 +29°C° 0 mm 2 mps 750 mmHg 34%
    09:00 +31°C° 0 mm 3 mps 750 mmHg 30%
    10:00 +34°C° 0 mm 4 mps 750 mmHg 26%
    11:00 +35°C° 0 mm 5 mps 749 mmHg 22%
    12:00 +36°C° 0 mm 5 mps 749 mmHg 21%
    13:00 +37°C° 0 mm 5 mps 749 mmHg 20%
    14:00 +37°C° 0 mm 5 mps 748 mmHg 19%
    15:00 +37°C° 0 mm 5 mps 748 mmHg 21%
    16:00 +37°C° 0 mm 5 mps 748 mmHg 22%
    17:00 +36°C° 0 mm 5 mps 748 mmHg 23%
    18:00 +34°C° 0 mm 4 mps 748 mmHg 31%
    19:00 +30°C° 0 mm 3 mps 748 mmHg 39%
    20:00 +28°C° 0 mm 2 mps 748 mmHg 46%
    21:00 +27°C° 0 mm 2 mps 748 mmHg 53%
    22:00 +26°C° 0 mm 2 mps 749 mmHg 60%
    23:00 +25°C° 0 mm 1 mps 749 mmHg 67%

    20 August, Sunday

    Time Temperature Precipitation Wind Pressure Humidity
    00:00 +24°C° 0 mm 1 mps 749 mmHg 68%
    01:00 +24°C° 0 mm 1 mps 748 mmHg 70%
    02:00 +24°C° 0 mm 1 mps 748 mmHg 71%
    03:00 +23°C° 0 mm 1 mps 748 mmHg 71%
    04:00 +23°C° 0 mm 1 mps 748 mmHg 70%
    05:00 +23°C° 0 mm 1 mps 748 mmHg 70%
    06:00 +24°C° 0 mm 1 mps 748 mmHg 61%
    07:00 +26°C° 0 mm 1 mps 748 mmHg 52%
    08:00 +28°C° 0 mm 1 mps 749 mmHg 43%
    09:00 +30°C° 0 mm 2 mps 749 mmHg 37%
    10:00 +32°C° 0 mm 2 mps 749 mmHg 30%
    11:00 +35°C° 0 mm 3 mps 748 mmHg 24%
    12:00 +36°C° 0 mm 3 mps 748 mmHg 22%
    13:00 +37°C° 0 mm 3 mps 748 mmHg 20%
    14:00 +37°C° 0 mm 4 mps 747 mmHg 18%
    15:00 +37°C° 0 mm 4 mps 747 mmHg 18%
    16:00 +37°C° 0 mm 4 mps 747 mmHg 19%
    17:00 +37°C° 0 mm 4 mps 747 mmHg 19%
    18:00 +34°C° 0 mm 3 mps 747 mmHg 23%
    19:00 +31°C° 0 mm 3 mps 747 mmHg 28%
    20:00 +28°C° 0 mm 2 mps 747 mmHg 33%
    21:00 +27°C° 0 mm 2 mps 747 mmHg 36%
    22:00 +26°C° 0 mm 2 mps 747 mmHg 39%
    23:00 +26°C° 0 mm 1 mps 747 mmHg 43%

    21 August, Monday

    Time Temperature Precipitation Wind Pressure Humidity
    00:00 +25°C° 0 mm 1 mps 747 mmHg 45%
    01:00 +25°C° 0 mm 1 mps 747 mmHg 47%
    02:00 +24°C° 0 mm 1 mps 747 mmHg 49%
    03:00 +24°C° 0 mm 1 mps 747 mmHg 53%
    04:00 +23°C° 0 mm 2 mps 747 mmHg 56%
    05:00 +21°C° 0 mm 2 mps 747 mmHg 59%
    06:00 +24°C° 0 mm 3 mps 748 mmHg 56%
    07:00 +25°C° 0 mm 3 mps 748 mmHg 54%
    08:00 +26°C° 0 mm 4 mps 748 mmHg 51%
    09:00 +28°C° 0 mm 4 mps 748 mmHg 47%
    10:00 +30°C° 0 mm 4 mps 748 mmHg 43%
    11:00 +33°C° 0 mm 4 mps 748 mmHg 39%
    12:00 +33°C° 0.1 mm 4 mps 748 mmHg 37%
    13:00 +34°C° 0.1 mm 4 mps 747 mmHg 36%
    14:00 +34°C° 0.1 mm 4 mps 747 mmHg 34%
    15:00 +34°C° 0 mm 4 mps 747 mmHg 35%
    16:00 +34°C° 0 mm 4 mps 747 mmHg 35%
    17:00 +33°C° 0 mm 4 mps 747 mmHg 35%
    18:00 +31°C° 0.1 mm 3 mps 747 mmHg 42%
    19:00 +29°C° 0.1 mm 3 mps 747 mmHg 49%
    20:00 +27°C° 0.1 mm 2 mps 747 mmHg 55%
    21:00 +26°C° 0 mm 2 mps 747 mmHg 59%
    22:00 +25°C° 0 mm 1 mps 747 mmHg 63%
    23:00 +24°C° 0 mm 1 mps 747 mmHg 66%
    Show more